Location: Peterborough
(44.3091°N, 78.3197°W)
Time: 03:33:26
(UTC-04:00)

S-56A Canister/Altair - Pass Details

Date: 30 March 2023
Orbit: 639 x 2492 km, 38.9° (Epoch: 08 June)

Event Time Altitude Azimuth Distance (km) Brightness Sun altitude
Rises 21:12:10 0° 265° (W) 4,972 12.8 -17.1°
Reaches altitude 10° 21:15:05 10° 263° (W) 4,196 12.2 -17.5°
Maximum altitude 21:26:59 70° 184° (S) 2,404 9.8 -19.5°
Enters shadow 21:36:39 27° 109° (ESE) 3,902 10.5 -21.0°
Drops below altitude 10° 21:41:56 10° 105° (ESE) 5,151 - -21.8°
Sets 21:45:56 0° 104° (ESE) 6,125 - -22.4°
